This demonstration page uses our WeatherBlox Daily Observations layout. Learn more.

Left ArrowRight Arrow

39.51506, -84.39828

Hourly Observations for June 25, 2018

Temp ( °F °C ) Dew Point ( °F °C ) Humidity (%) Winds ( mph kmh ) Pressure ( in mb ) Visibility ( mi km ) Precip ( " mm )
12:15 am 00:15 Clear 67 19.3 64 17.6 90 90 N N/A 30.00 1016 10 16 N/A
12:35 am 00:35 Clear 66 18.9 64 17.8 93 93 N N/A 30.00 1016 10 16 N/A
12:55 am 00:55 Clear with Mist and Fog 65 18.2 63 17.3 95 95 N N/A 30.00 1016 4 6 N/A
1:15 am 01:15 Clear 64 17.8 63 17.1 96 96 N 3 6 30.00 1016 10 16 N/A
1:35 am 01:35 Clear 64 18 63 17.3 96 96 NNE 5 7 30.00 1016 10 16 N/A
1:55 am 01:55 Clear 64 17.9 63 17.4 97 97 N 3 6 30.00 1016 10 16 N/A
2:15 am 02:15 Clear 64 17.8 63 17.1 96 96 N 5 7 30.00 1016 10 16 N/A
2:35 am 02:35 Clear 65 18.4 63 17.4 94 94 N 5 7 30.00 1016 10 16 N/A
2:55 am 02:55 Clear 65 18.6 63 17.3 92 92 NNE 3 6 30.00 1016 10 16 N/A
3:15 am 03:15 Clear 65 18.2 63 17.1 93 93 N 3 6 30.03 1017 10 16 N/A
3:35 am 03:35 Clear 65 18.2 62 16.9 92 92 N N/A 30.03 1017 10 16 N/A
3:55 am 03:55 Clear 65 18.1 62 16.9 93 93 N 3 6 30.03 1017 10 16 N/A
4:15 am 04:15 Clear 65 18.3 62 16.9 92 92 N 6 9 30.03 1017 10 16 N/A
4:35 am 04:35 Clear 65 18.4 63 17 92 92 NNE 5 7 30.03 1017 10 16 N/A
4:55 am 04:55 Clear 64 17.7 62 16.8 95 95 N N/A 30.03 1017 10 16 N/A
5:15 am 05:15 Clear 64 18 63 17.1 95 95 NNE 5 7 30.03 1017 10 16 N/A
5:35 am 05:35 Clear 65 18.4 63 17.1 92 92 NNE 3 6 30.03 1017 10 16 N/A
5:55 am 05:55 Clear 65 18.6 63 17.3 92 92 NE 5 7 30.06 1018 10 16 N/A
6:15 am 06:15 Sunny 65 18.3 63 17 92 92 N 3 6 30.06 1018 10 16 N/A
6:35 am 06:35 Sunny 65 18.6 63 17.1 91 91 ENE 3 6 30.06 1018 10 16 N/A
6:55 am 06:55 Sunny 65 18.6 63 17.1 91 91 ENE 5 7 30.06 1018 10 16 N/A
7:15 am 07:15 Sunny 67 19.4 62 16.9 86 86 NE 8 13 30.06 1018 10 16 N/A
7:35 am 07:35 Sunny 67 19.7 62 16.7 83 83 ENE 7 11 30.09 1019 10 16 N/A
7:55 am 07:55 Partly Cloudy 67 19.6 62 16.5 82 82 ENE 7 11 30.09 1019 10 16 N/A
8:15 am 08:15 Mostly Cloudy 67 19.5 62 16.4 82 82 ENE 7 11 30.09 1019 10 16 N/A
8:35 am 08:35 Sunny 67 19.6 62 16.4 82 82 E 7 11 30.09 1019 10 16 N/A
8:55 am 08:55 Sunny 67 19.7 61 16.2 80 80 E 7 11 30.09 1019 10 16 N/A
9:15 am 09:15 Sunny 68 20.1 62 16.5 80 80 ENE 6 9 30.12 1020 10 16 N/A
9:35 am 09:35 Sunny 68 20.2 62 16.4 79 79 ENE 8 13 30.12 1020 10 16 N/A
9:55 am 09:55 Cloudy with Light Rain 68 20.2 63 17 82 82 E 7 11 30.09 1019 10 16 N/A
10:15 am 10:15 Partly Cloudy with Light Rain 69 20.4 62 16.7 79 79 E 8 13 30.09 1019 10 16 N/A
10:35 am 10:35 Mostly Cloudy 69 20.7 62 16.7 78 78 E 8 13 30.12 1020 10 16 N/A
10:55 am 10:55 Cloudy 70 21 63 17.1 79 79 ENE 8 13 30.12 1020 10 16 N/A
11:15 am 11:15 Sunny 71 21.6 63 17.2 76 76 ENE 8 13 30.12 1020 10 16 N/A
11:35 am 11:35 Partly Cloudy 71 21.4 62 16.7 75 75 E 9 15 30.12 1020 10 16 N/A
11:55 am 11:55 Sunny 71 21.8 63 17.2 75 75 E 7 11 30.12 1020 10 16 N/A
12:15 pm 12:15 Sunny 71 21.9 63 17.1 74 74 E 9 15 30.12 1020 10 16 N/A
12:35 pm 12:35 Sunny 71 21.9 62 16.9 73 73 E 7 11 30.12 1020 10 16 N/A
12:50 pm 12:50 Mostly Cloudy 71 21.9 63 17.2 75 75 ESE 7 11 30.12 1020 10 16 N/A
1:15 pm 13:15 Cloudy 72 22 64 17.5 76 76 E 8 13 30.12 1020 10 16 N/A
1:35 pm 13:35 Cloudy 71 21.9 64 17.6 77 77 E 5 7 30.12 1020 10 16 N/A
1:55 pm 13:55 Cloudy 72 22 64 17.5 76 76 E 8 13 30.12 1020 10 16 N/A
2:15 pm 14:15 Cloudy 72 22 64 17.6 76 76 E 6 9 30.12 1020 10 16 N/A
2:35 pm 14:35 Mostly Cloudy 73 22.5 65 18.3 77 77 ENE 8 13 30.09 1019 10 16 N/A
2:55 pm 14:55 Cloudy 73 22.5 65 18.1 76 76 ENE 9 15 30.09 1019 10 16 N/A
3:15 pm 15:15 Cloudy 73 22.7 64 17.6 73 73 ENE 9 15 30.09 1019 10 16 N/A
3:35 pm 15:35 Cloudy 73 23 65 18.1 74 74 NE 12 19 30.06 1018 10 16 N/A
3:55 pm 15:55 Cloudy 75 23.7 65 18.3 72 72 ENE 10 17 30.06 1018 10 16 N/A
4:15 pm 16:15 Partly Cloudy 75 23.8 64 17.5 68 68 ENE 10 17 30.09 1019 10 16 N/A
4:35 pm 16:35 Partly Cloudy 75 24.1 64 17.7 68 68 E 9 15 30.09 1019 10 16 N/A
4:55 pm 16:55 Cloudy 75 24 63 17.3 66 66 E 12 19 30.09 1019 10 16 N/A
5:15 pm 17:15 Cloudy 75 24 63 17.4 67 67 E 9 15 30.09 1019 10 16 N/A
5:35 pm 17:35 Cloudy 75 24 64 17.6 68 68 E 7 11 30.09 1019 10 16 N/A
5:55 pm 17:55 Cloudy 76 24.3 65 18.1 68 68 E 8 13 30.09 1019 10 16 N/A
6:15 pm 18:15 Partly Cloudy 76 24.2 64 18 68 68 E 7 11 30.06 1018 10 16 N/A
6:35 pm 18:35 Partly Cloudy 76 24.3 63 17.3 65 65 E 7 11 30.06 1018 10 16 N/A
6:55 pm 18:55 Sunny 75 24.1 63 17.3 66 66 ENE 8 13 30.06 1018 10 16 N/A
7:15 pm 19:15 Sunny 78 25.3 62 16.8 59 59 E 12 19 30.06 1018 10 16 N/A
7:35 pm 19:35 Sunny 75 24 62 16.8 64 64 E 7 11 30.06 1018 10 16 N/A
7:55 pm 19:55 Sunny 76 24.4 62 16.7 62 62 E 9 15 30.06 1018 10 16 N/A
8:15 pm 20:15 Sunny 76 24.2 63 17 64 64 E 9 15 30.06 1018 10 16 N/A
8:35 pm 20:35 Sunny 75 23.9 62 16.6 64 64 E 7 11 30.06 1018 10 16 N/A
8:55 pm 20:55 Sunny 73 22.9 62 16.6 68 68 E 5 7 30.06 1018 10 16 N/A
9:15 pm 21:15 Clear 73 22.7 61 16.3 67 67 E 6 9 30.09 1019 10 16 N/A
9:35 pm 21:35 Clear 71 21.8 62 16.4 72 72 E 3 6 30.09 1019 10 16 N/A
9:55 pm 21:55 Clear 69 20.5 62 16.5 78 78 ENE 3 6 30.09 1019 10 16 N/A
10:15 pm 22:15 Clear 66 18.9 63 17.4 91 91 N 3 6 30.09 1019 10 16 N/A
10:35 pm 22:35 Clear 65 18.6 63 17.3 92 92 N 3 6 30.09 1019 10 16 N/A
10:55 pm 22:55 Clear 65 18.6 64 17.5 93 93 N N/A 30.09 1019 10 16 N/A
11:15 pm 23:15 Clear 64 17.8 63 17.1 96 96 N 3 6 30.09 1019 10 16 N/A
11:35 pm 23:35 Clear 63 17.4 62 16.8 96 96 N N/A 30.06 1018 10 16 N/A
11:55 pm 23:55 Clear 64 17.7 63 17 96 96 N N/A 30.09 1019 10 16 N/A

Powered by AerisWeather